Powrót do katalogu

CZ-6A DEB

AktywnyPO
NORAD 56271·DEBRIS·🇨🇳 China

Wystrzelony Nov 11, 2022 z Taiyuan Satellite Launch Center

Loading…

Następne Przeloty (najbliższe 24 godziny)

TLE

ŚwieżeSource: Space-Track

Epoka: Sep 14, 2026, 09:50 UTC

1 56271U 22151ACP 26257.40986324  .00010885  00000-0  14092-2 0  9990
2 56271  98.5307 313.0983 0044309 351.6031   8.4433 14.80358701185273

Śledź CZ-6A DEB w czasie rzeczywistym z AllMySat

Download on the App Store